Creede, CO

10:01 PM MST on February 23, 2017 (GMT -0700)
Wolf Creek Pass

Weather History for KCPW - April, 2014

Change the Weather History Date:

Wednesday, April 23, 2014

  Actual Average (KE33) Record (KE33)
Temperature  
Mean Temperature 26 °F -  
Max Temperature 33 °F 53 °F 71 °F (2012)
Min Temperature 19 °F 33 °F 24 °F (2001)
Degree Days  
Heating Degree Days 39    
Moisture  
Dew Point 16 °F    
Average Humidity 59    
Maximum Humidity 80    
Minimum Humidity 40    
Precipitation  
Precipitation 0.00 in - - ()
Sea Level Pressure  
Sea Level Pressure 30.01 in    
Wind  
Wind Speed 27 mph (SW)    
Max Wind Speed 41 mph    
Max Gust Speed 60 mph    
Visibility 10 miles    
Events Snow , Thunderstorm    
Averages and records for this station are not official NWS values.
T = Trace of Precipitation, MM = Missing Value Source: NWS Daily Summary

Daily Weather History Graph

Daily Weather History Graph

Search for Another Location

Airport or City:

Trip Planner

Search our weather history database for the weather conditions in past years. The results will help you decide how hot, cold, wet, or windy it might be!

Date:

Astronomy

Apr. 23, 2014 Rise Set
Actual Time 6:21 AM MDT 7:49 PM MDT
Civil Twilight 5:54 AM MDT 8:17 PM MDT
Nautical Twilight 5:21 AM MDT 8:50 PM MDT
Astronomical Twilight 4:46 AM MDT 9:25 PM MDT
Moon 2:47 AM MDT (4/23) 2:08 PM MDT (4/23)
Length of Visible Light 14h 23m
Length of Day
13h 28m
Waning Crescent, 34% of the Moon is Illuminated
Apr 23
Waning Crescent
Apr 29
New
May 6
First Quarter
May 14
Full
May 21
Last Quarter

Hourly Weather History & Observations

Time (MDT) Temp. Windchill Dew Point Humidity Pressure Visibility Wind Dir Wind Speed Gust Speed Precip Events Conditions
12:18 AM 33.8 °F 20.3 °F 21.2 °F 60% 30.08 in 10.0 mi SW 28.8 mph 44.9 mph N/A   Overcast
12:36 AM 33.8 °F 19.6 °F 23.0 °F 65% 30.07 in 10.0 mi SW 32.2 mph 58.7 mph N/A   Overcast
12:57 AM 33.8 °F 20.3 °F 21.2 °F 60% 30.07 in 10.0 mi SW 28.8 mph 41.4 mph N/A   Overcast
1:19 AM 33.8 °F 19.2 °F 21.2 °F 60% 30.07 in 10.0 mi SW 34.5 mph 41.4 mph N/A Thunderstorm Overcast
1:38 AM 32.0 °F 16.3 °F 23.0 °F 69% 30.06 in 5.0 mi SW 36.8 mph 59.8 mph N/A Snow Light Snow
1:58 AM 32.0 °F 18.4 °F 21.2 °F 64% 30.05 in 10.0 mi SW 26.5 mph 46.0 mph N/A   Overcast
2:19 AM 32.0 °F 16.7 °F 19.4 °F 60% 30.05 in 10.0 mi SW 34.5 mph 49.5 mph N/A   Overcast
2:39 AM 32.0 °F 18.9 °F 19.4 °F 60% 30.05 in 10.0 mi SSW 24.2 mph 41.4 mph N/A   Overcast
2:57 AM 32.0 °F 18.6 °F 19.4 °F 60% 30.04 in 10.0 mi SW 25.3 mph 36.8 mph N/A   Overcast
3:19 AM 32.0 °F 18.1 °F 19.4 °F 60% 30.04 in 10.0 mi SSW 27.6 mph 41.4 mph N/A   Overcast
3:23 AM 32.0 °F 18.4 °F 21.2 °F 64% 30.04 in 10.0 mi SW 26.5 mph 38.0 mph N/A   Overcast
3:59 AM 32.0 °F 19.5 °F 21.2 °F 64% 30.04 in 10.0 mi SW 21.9 mph 39.1 mph N/A   Overcast
4:16 AM 32.0 °F 18.9 °F 21.2 °F 64% 30.03 in 10.0 mi SW 24.2 mph 32.2 mph N/A   Overcast
4:35 AM 32.0 °F 18.4 °F 21.2 °F 64% 30.02 in 10.0 mi SW 26.5 mph 34.5 mph N/A   Overcast
4:59 AM 30.2 °F 16.2 °F 23.0 °F 75% 30.02 in 10.0 mi SW 25.3 mph 40.3 mph N/A   Overcast
5:19 AM 30.2 °F 16.8 °F 23.0 °F 75% 30.02 in 10.0 mi SSW 23.0 mph 38.0 mph N/A   Overcast
5:39 AM 30.2 °F 15.9 °F 23.0 °F 75% 30.01 in 10.0 mi SW 26.5 mph 43.7 mph N/A   Overcast
5:59 AM 30.2 °F 16.2 °F 23.0 °F 75% 30.02 in 10.0 mi SW 25.3 mph 41.4 mph N/A   Overcast
6:12 AM 30.2 °F 16.2 °F 21.2 °F 69% 30.01 in 10.0 mi SW 25.3 mph 38.0 mph N/A   Overcast
6:39 AM 28.4 °F 13.8 °F 21.2 °F 74% 30.01 in 10.0 mi SW 25.3 mph 40.3 mph N/A   Mostly Cloudy
6:53 AM 28.4 °F 14.7 °F 23.0 °F 80% 30.01 in 10.0 mi SW 21.9 mph 35.7 mph N/A   Mostly Cloudy
7:14 AM 30.2 °F 17.8 °F 21.2 °F 69% 30.01 in 10.0 mi SW 19.6 mph 34.5 mph N/A   Mostly Cloudy
7:25 AM 30.2 °F 16.5 °F 21.2 °F 69% 30.01 in 10.0 mi SW 24.2 mph 36.8 mph N/A   Scattered Clouds
7:54 AM 30.2 °F 16.5 °F 23.0 °F 75% 30.00 in 10.0 mi SW 24.2 mph 33.4 mph N/A   Overcast
8:19 AM 30.2 °F 15.7 °F 23.0 °F 75% 29.99 in 10.0 mi SW 27.6 mph 38.0 mph N/A   Mostly Cloudy
8:38 AM 30.2 °F 15.4 °F 23.0 °F 75% 29.99 in 10.0 mi SSW 28.8 mph 43.7 mph N/A   Mostly Cloudy
8:59 AM 30.2 °F 15.9 °F 21.2 °F 69% 29.98 in 10.0 mi SW 26.5 mph 46.0 mph N/A   Mostly Cloudy
9:08 AM 30.2 °F 15.9 °F 23.0 °F 75% 29.98 in 10.0 mi SW 26.5 mph 43.7 mph N/A   Mostly Cloudy
9:39 AM 30.2 °F 17.4 °F 19.4 °F 64% 29.98 in 10.0 mi SW 20.7 mph 43.7 mph N/A   Mostly Cloudy
9:57 AM 30.2 °F 16.8 °F 19.4 °F 64% 29.99 in 10.0 mi SW 23.0 mph 42.6 mph N/A   Scattered Clouds
10:11 AM 32.0 °F 17.4 °F 19.4 °F 60% 29.99 in 10.0 mi SW 31.1 mph 47.2 mph N/A   Mostly Cloudy
10:31 AM 32.0 °F 19.2 °F 17.6 °F 55% 29.99 in 10.0 mi SW 23.0 mph 42.6 mph N/A   Mostly Cloudy
11:16 AM 32.0 °F 17.0 °F 17.6 °F 55% 29.98 in 10.0 mi SW 33.4 mph 44.9 mph N/A   Mostly Cloudy
11:39 AM 32.0 °F 17.6 °F 15.8 °F 51% 29.98 in 10.0 mi SW 29.9 mph 43.7 mph N/A   Mostly Cloudy
11:53 AM 32.0 °F 20.1 °F 15.8 °F 51% 29.99 in 10.0 mi SW 19.6 mph 44.9 mph N/A   Mostly Cloudy
12:09 PM 32.0 °F 17.0 °F 15.8 °F 51% 29.98 in 10.0 mi SW 33.4 mph 47.2 mph N/A   Scattered Clouds
12:35 PM 32.0 °F 18.6 °F 17.6 °F 55% 29.99 in 10.0 mi SW 25.3 mph 39.1 mph N/A   Scattered Clouds
12:59 PM 32.0 °F 16.7 °F 14.0 °F 48% 29.98 in 10.0 mi SW 34.5 mph 46.0 mph N/A   Scattered Clouds
1:16 PM 32.0 °F 18.6 °F 14.0 °F 48% 29.99 in 10.0 mi SW 25.3 mph 46.0 mph N/A   Scattered Clouds
1:37 PM 32.0 °F 18.4 °F 12.2 °F 44% 29.98 in 10.0 mi SW 26.5 mph 39.1 mph N/A   Scattered Clouds
2:17 PM 32.0 °F 17.0 °F 12.2 °F 44% 29.98 in 10.0 mi SW 33.4 mph 50.6 mph N/A   Mostly Cloudy
2:37 PM 32.0 °F 16.5 °F 12.2 °F 44% 29.98 in 10.0 mi SW 35.7 mph 47.2 mph N/A   Overcast
2:59 PM 32.0 °F 18.6 °F 14.0 °F 48% 29.98 in 10.0 mi SW 25.3 mph 47.2 mph N/A   Overcast
3:13 PM 32.0 °F 19.8 °F 14.0 °F 48% 29.97 in 10.0 mi SW 20.7 mph 42.6 mph N/A   Overcast
3:35 PM 32.0 °F 18.4 °F 12.2 °F 44% 29.97 in 10.0 mi SSW 26.5 mph 43.7 mph N/A   Overcast
3:59 PM 30.2 °F 16.8 °F 10.4 °F 44% 29.97 in 10.0 mi SW 23.0 mph 47.2 mph N/A   Overcast
4:19 PM 30.2 °F 15.9 °F 8.6 °F 40% 29.96 in 10.0 mi WSW 26.5 mph 42.6 mph N/A   Overcast
4:25 PM 30.2 °F 14.9 °F 8.6 °F 40% 29.97 in 10.0 mi WSW 31.1 mph 50.6 mph N/A   Overcast
4:59 PM 28.4 °F 12.7 °F 10.4 °F 47% 29.97 in 10.0 mi West 29.9 mph 49.5 mph N/A   Overcast
5:18 PM 28.4 °F 14.7 °F 12.2 °F 51% 29.98 in 10.0 mi SW 21.9 mph 42.6 mph N/A   Overcast
5:31 PM 28.4 °F 12.3 °F 12.2 °F 51% 29.98 in 10.0 mi SW 32.2 mph 40.3 mph N/A   Overcast
5:57 PM 28.4 °F 11.8 °F 12.2 °F 51% 29.97 in 10.0 mi SW 34.5 mph 43.7 mph N/A   Overcast
6:18 PM 26.6 °F 8.7 °F 10.4 °F 51% 29.96 in 10.0 mi SW 38.0 mph 52.9 mph N/A   Overcast
6:39 PM 26.6 °F 10.3 °F 8.6 °F 47% 29.96 in 10.0 mi SW 29.9 mph 50.6 mph N/A   Overcast
6:59 PM 26.6 °F 9.6 °F 8.6 °F 47% 29.97 in 10.0 mi SW 33.4 mph 47.2 mph N/A   Mostly Cloudy
7:18 PM 26.6 °F 10.6 °F 8.6 °F 47% 29.98 in 10.0 mi SW 28.8 mph 41.4 mph N/A   Mostly Cloudy
7:39 PM 24.8 °F 5.5 °F 10.4 °F 54% 29.97 in 10.0 mi SW 41.4 mph 49.5 mph N/A   Mostly Cloudy
7:57 PM 23.0 °F 5.1 °F 10.4 °F 59% 29.99 in 10.0 mi SW 31.1 mph 40.3 mph N/A   Scattered Clouds
8:18 PM 23.0 °F 6.9 °F 10.4 °F 59% 30.01 in 10.0 mi SW 24.2 mph 31.1 mph N/A   Clear
8:37 PM 23.0 °F 7.6 °F 10.4 °F 59% 30.02 in 10.0 mi SW 21.9 mph 34.5 mph N/A   Clear
8:59 PM 23.0 °F 8.7 °F 10.4 °F 59% 30.03 in 10.0 mi SW 18.4 mph 26.5 mph N/A   Scattered Clouds
9:19 PM 23.0 °F 8.0 °F 10.4 °F 59% 30.04 in 10.0 mi SW 20.7 mph 29.9 mph N/A   Clear
9:37 PM 21.2 °F 5.2 °F 10.4 °F 63% 30.04 in 10.0 mi SW 21.9 mph 29.9 mph N/A   Clear
9:56 PM 21.2 °F 7.3 °F 10.4 °F 63% 30.04 in 10.0 mi SW 16.1 mph 25.3 mph N/A   Clear
10:09 PM 21.2 °F 6.8 °F 10.4 °F 63% 30.04 in 10.0 mi SW 17.3 mph 21.9 mph N/A   Clear
10:34 PM 21.2 °F 6.8 °F 10.4 °F 63% 30.04 in 10.0 mi SW 17.3 mph 23.0 mph N/A   Clear
10:52 PM 21.2 °F 8.3 °F 10.4 °F 63% 30.04 in 10.0 mi SSW 13.8 mph 18.4 mph N/A   Clear
11:18 PM 19.4 °F 6.6 °F 8.6 °F 63% 30.04 in 10.0 mi SW 12.7 mph - N/A   Clear
11:36 PM 19.4 °F 10.4 °F 10.4 °F 68% 30.06 in 10.0 mi West 6.9 mph - N/A   Clear
11:55 PM 19.4 °F 10.4 °F 8.6 °F 63% 30.06 in 10.0 mi WSW 6.9 mph - N/A   Scattered Clouds